User: anonymous   Login
Location: Sun City Center
(27.6996°N, 82.3528°W)
Time: 09:39:29
(UTC-04:00)
Language:

Cosmos 2084 Rocket - Orbit

View from above orbital plane
View from above orbital plane
View from above satellite
View from above satellite

Ground track
Ground track

The orbit data is extracted from the following two-line orbital elements,

1 20666U 90055D   16272.13589090  .00000300  00000-0  42870-4 0  9990
2 20666  62.7835 302.1195 0136222  83.4920 278.1662 14.91709193422088
Epoch (UTC): 28 September 2016 03:15:40
Eccentricity: 0.0136222
inclination: 62.7835°
perigee height: 497 km
apogee height: 687 km
right ascension of ascending node: 302.1195°
argument of perigee: 83.4920°
revolutions per day: 14.91709193
mean anomaly at epoch: 278.1662°
orbit number at epoch: 42208

The dashed part of the orbit path shows where the satellite is in the earth's shadow,  

DLR